Chennai, India

3:24 AM IST on May 27, 2017 (GMT +0530)
Chennai International

Weather History for VOMM - July, 2013

Change the Weather History Date:

Wednesday, July 24, 2013

  Actual Average Record
Temperature  
Mean Temperature 82 °F -  
Max Temperature 88 °F 91 °F 99 °F (2012)
Min Temperature 75 °F 78 °F 68 °F (2003)
Cooling Degree Days 16    
Growing Degree Days 32 (Base 50)    
Moisture  
Dew Point 73 °F    
Average Humidity 70    
Maximum Humidity 87    
Minimum Humidity 57    
Precipitation  
Precipitation 0.00 in 0.18 in - ()
Sea Level Pressure  
Sea Level Pressure 29.63 in    
Wind  
Wind Speed 6 mph ()    
Max Wind Speed 14 mph    
Max Gust Speed -    
Visibility 3.1 miles    
Events Rain    
Averages and records for this station are not official NWS values.
T = Trace of Precipitation, MM = Missing Value Source: Averaged Metar Reports

Daily Weather History Graph

Daily Weather History Graph

Search for Another Location

Airport or City:

Trip Planner

Search our weather history database for the weather conditions in past years. The results will help you decide how hot, cold, wet, or windy it might be!

Date:

Astronomy

Jul. 24, 2013 Rise Set
Actual Time 5:52 AM IST 6:38 PM IST
Civil Twilight 5:30 AM IST 7:01 PM IST
Nautical Twilight 5:03 AM IST 7:27 PM IST
Astronomical Twilight 4:36 AM IST 7:55 PM IST
Moon 7:59 PM IST (7/24) 7:13 AM IST (7/24)
Length of Visible Light 13h 31m
Length of Day
12h 45m
Waning Gibbous, 97% of the Moon is Illuminated
Jul 24
Waning Gibbous
Jul 29
Last Quarter
Aug 7
New
Aug 14
First Quarter
Aug 21
Full

Hourly Weather History & Observations

Time (IST) Temp. Heat Index Dew Point Humidity Pressure Visibility Wind Dir Wind Speed Gust Speed Precip Events Conditions
12:10 AM 80.6 °F 84.6 °F 71.6 °F 74% 29.65 in 3.1 mi SW 4.6 mph - N/A   Light Drizzle
12:40 AM 80.6 °F 84.6 °F 71.6 °F 74% 29.62 in 3.1 mi SW 5.8 mph - N/A   Light Drizzle
1:10 AM 80.6 °F 83.9 °F 69.8 °F 70% 29.62 in 3.1 mi SW 6.9 mph - N/A   Light Drizzle
1:40 AM 80.6 °F 83.9 °F 69.8 °F 70% 29.62 in 3.1 mi WSW 5.8 mph - N/A   Light Drizzle
2:10 AM 80.6 °F 83.9 °F 69.8 °F 70% 29.59 in 3.1 mi SW 5.8 mph - N/A   Light Drizzle
2:30 AM 79 °F - 73 °F 78% 29.64 in 2 mi SW 3.5 mph - -   Overcast
2:40 AM 80.6 °F 83.9 °F 69.8 °F 70% 29.59 in 3.1 mi SW 8.1 mph - N/A   Haze
3:10 AM 80.6 °F 83.9 °F 69.8 °F 70% 29.59 in 3.1 mi WSW 6.9 mph - N/A   Light Drizzle
3:40 AM 78.8 °F - 71.6 °F 78% 29.59 in 3.1 mi SW 4.6 mph - N/A   Light Drizzle
4:10 AM 78.8 °F - 71.6 °F 78% 29.59 in 3.1 mi SW 5.8 mph - N/A   Light Drizzle
4:40 AM 78.8 °F - 71.6 °F 78% 29.59 in 3.1 mi SW 5.8 mph - N/A   Haze
5:10 AM 78.8 °F - 71.6 °F 78% 29.59 in 3.1 mi SW 6.9 mph - N/A   Haze
5:30 AM 80 °F - 71 °F 69% 29.64 in 2 mi SW 3.5 mph - -   Partly Cloudy
5:40 AM 78.8 °F - 69.8 °F 74% 29.62 in 3.1 mi SW 6.9 mph - N/A   Haze
6:10 AM 80.6 °F 83.9 °F 69.8 °F 70% 29.62 in 3.1 mi SW 6.9 mph - N/A   Haze
6:40 AM 80.6 °F 83.9 °F 69.8 °F 70% 29.62 in 3.1 mi SW 8.1 mph - N/A   Haze
7:10 AM 80.6 °F 83.9 °F 69.8 °F 70% 29.65 in 3.1 mi SSW 9.2 mph - N/A   Haze
7:40 AM 80.6 °F 83.9 °F 69.8 °F 70% 29.65 in 3.1 mi SSW 5.8 mph - N/A   Light Drizzle
8:10 AM 82.4 °F 87.2 °F 71.6 °F 70% 29.65 in 3.1 mi SSW 6.9 mph - N/A   Light Drizzle
8:30 AM 82 °F - 74 °F 70% 29.70 in 2 mi Calm Calm - - Rain Light Drizzle
8:40 AM 82.4 °F 87.2 °F 71.6 °F 70% 29.68 in 3.1 mi SW 6.9 mph - N/A   Haze
9:10 AM 84.2 °F 88.4 °F 69.8 °F 62% 29.68 in 3.1 mi SW 10.4 mph - N/A   Haze
9:40 AM 84.2 °F 89.6 °F 71.6 °F 66% 29.68 in 3.1 mi SSW 8.1 mph - N/A   Haze
10:10 AM 84.2 °F 89.6 °F 71.6 °F 66% 29.68 in 3.1 mi SW 10.4 mph - N/A   Haze
10:40 AM 84.2 °F 89.6 °F 71.6 °F 66% 29.68 in 3.7 mi SW 9.2 mph - N/A   Mostly Cloudy
11:10 AM 86.0 °F 91.8 °F 71.6 °F 62% 29.65 in 3.7 mi SW 11.5 mph - N/A   Mostly Cloudy
11:30 AM 85 °F - 73 °F 60% 29.69 in 6 mi SW 3.5 mph - -   Partly Cloudy
11:40 AM 86.0 °F 93.4 °F 73.4 °F 66% 29.65 in 3.7 mi SW 10.4 mph - N/A   Mostly Cloudy
12:10 PM 86.0 °F 91.8 °F 71.6 °F 62% 29.65 in 3.7 mi SW 8.1 mph - N/A   Mostly Cloudy
12:40 PM 87.8 °F 93.8 °F 71.6 °F 58% 29.65 in 3.7 mi SW 11.5 mph - N/A   Mostly Cloudy
1:10 PM 87.8 °F 93.8 °F 71.6 °F 58% 29.62 in 3.7 mi SSW 10.4 mph - N/A   Mostly Cloudy
1:40 PM 87.8 °F 93.8 °F 71.6 °F 58% 29.62 in 3.7 mi SSW 10.4 mph - N/A   Light Drizzle
2:10 PM 87.8 °F 93.8 °F 71.6 °F 58% 29.62 in 3.7 mi SSW 10.4 mph - N/A   Light Drizzle
2:30 PM 88 °F - 75 °F 57% 29.65 in 2 mi SW 2.3 mph - - Rain Light Drizzle
2:40 PM 87.8 °F 95.6 °F 73.4 °F 62% 29.59 in 3.7 mi South 8.1 mph - N/A   Mostly Cloudy
3:10 PM 87.8 °F 93.8 °F 71.6 °F 58% 29.59 in 3.7 mi South 9.2 mph - N/A   Mostly Cloudy
4:10 PM 87.8 °F 93.8 °F 71.6 °F 58% 29.59 in 2.5 mi South 9.2 mph - N/A   Haze
4:40 PM 87.8 °F 93.8 °F 71.6 °F 58% 29.56 in 2.5 mi South 6.9 mph - N/A   Haze
5:10 PM 87.8 °F 95.6 °F 73.4 °F 62% 29.56 in 2.5 mi South 9.2 mph - N/A   Haze
5:30 PM 86 °F - 77 °F 67% 29.62 in 6 mi SSW 3.5 mph - -   Partly Cloudy
5:40 PM 86.0 °F 95.1 °F 75.2 °F 70% 29.59 in 2.5 mi SSE 6.9 mph - N/A   Haze
6:10 PM 86.0 °F 93.4 °F 73.4 °F 66% 29.59 in 2.5 mi South 9.2 mph - N/A   Haze
6:40 PM 86.0 °F 93.4 °F 73.4 °F 66% 29.59 in 2.5 mi SSE 10.4 mph - N/A   Haze
7:10 PM 86.0 °F 93.4 °F 73.4 °F 66% 29.62 in 2.5 mi SSE 12.7 mph - N/A   Haze
7:40 PM 84.2 °F 94.1 °F 77.0 °F 79% 29.62 in 2.5 mi South 13.8 mph - N/A   Haze
8:10 PM 84.2 °F 94.1 °F 77.0 °F 79% 29.62 in 2.5 mi South 11.5 mph - N/A   Haze
8:30 PM 83 °F - 78 °F 82% 29.68 in 2 mi SW 6.9 mph - - Rain Light Drizzle
8:40 PM 84.2 °F 94.1 °F 77.0 °F 79% 29.65 in 2.5 mi South 9.2 mph - N/A   Haze
9:10 PM 84.2 °F 94.1 °F 77.0 °F 79% 29.65 in 2.5 mi South 9.2 mph - N/A   Haze
9:40 PM 82.4 °F 90.9 °F 77.0 °F 84% 29.65 in 2.5 mi SSW 4.6 mph - N/A   Haze
10:40 PM 82.4 °F 90.9 °F 77.0 °F 84% 29.68 in 3.7 mi Variable 3.5 mph - N/A   Mostly Cloudy
11:10 PM 82.4 °F 90.9 °F 77.0 °F 84% 29.68 in 3.7 mi Calm Calm - N/A   Mostly Cloudy
11:30 PM 82 °F - 79 °F 87% 29.72 in 2 mi Calm Calm - -   Partly Cloudy
11:40 PM 82.4 °F 90.9 °F 77.0 °F 84% 29.68 in 3.7 mi Calm Calm - N/A   Mostly Cloudy